Regional Weather Roundup
Issued by NWS Grand Forks, ND

Home | Current Version | Previous Version | Graphics & Text | Print | Product List | Glossary On
Versions: 1 2 3 4 5 6 7 8 9 10 11 12 13 14 15 16 17 18 19 20 21 22 23 24 25 26 27 28 29 30 31 32 33 34 35 36 37 38 39 40 41 42 43 44 45 46 47 48 49 50
621
ASUS43 KFGF 210410
RWRFGF
PRAIRIE TO PINES  WEATHER ROUNDUP
NATIONAL WEATHER SERVICE EASTERN NORTH DAKOTA/GRAND FORKS ND
1000 PM CST SAT JAN 20 2018

 **SATELLITE DATA USED TO AUGMENT SKY COVER AT AUTOMATED STATIONS**
 *****  WEATHER ACROSS EASTERN NORTH DAKOTA  *****

CITY           SKY/WX    TMP DP  RH WIND       PRES   REMARKS
GRAND FORKS    FAIR      20  19  96 S6        29.90R WCI  12
GRAND FRKS AFB FAIR      31  24  73 NW3       29.89R
DEVILS LAKE    FAIR      24  21  88 W7        29.90R WCI  16
FARGO          FAIR      30  27  88 W5        29.92R
WAHPETON ARPT  FAIR      32  28  86 CALM      29.93F
$$

 ***** WEATHER ACROSS CENTRAL AND WESTERN NORTH DAKOTA  *****

CITY           SKY/WX    TMP DP  RH WIND       PRES   REMARKS
BISMARCK       FAIR      29  24  82 W8        29.95R WCI  21
MINOT          FAIR      27  20  75 W12       29.92R WCI  17
JAMESTOWN      FAIR      30  25  81 W3        29.91R
MINOT AFB      FAIR      22  18  82 W9        29.90R WCI  12
GARRISON         N/A     21  17  84 W6        29.92R WCI  13
WILLISTON      FAIR      21  17  84 SW7       29.93S WCI  12
DICKINSON      FAIR      26  20  77 W10       29.91S WCI  16
HETTINGER      FAIR      26  20  77 W6        29.96R WCI  19
$$

 *****  OTHER AIRPORT OBSERVATIONS IN OUR AREA  *****

CITY           SKY/WX    TMP DP  RH WIND       PRES   REMARKS
WALHALLA       FAIR      28  27  93 W12       29.88S WCI  18
GRAFTON AIRPOR NOT AVBL
VALLEY CITY AR NOT AVBL
CANDO          FAIR      19  19 100 W10       29.91R WCI   8
CAVALIER APRT    N/A     28  25  86 W10       29.88S WCI  19
GWINNER          N/A     34  28  80 W7        29.92S
SHEYENNE NWR     N/A     32  29  87 NW6       29.95S
ROLLA          FAIR      21  21 100 W5        29.89R WCI  15
 ***** THE ABOVE OBSERVATIONS ARE NON NWS ARE NOT QUALITY
       CONTROLLED AND MAY MIS-REPORT RAIN FOR SNOW...
$$

  *****  WEATHER ACROSS NORTHERN MINNESOTA  *****

CITY           SKY/WX    TMP DP  RH WIND       PRES   REMARKS
FLAG ISLAND    CLOUDY    21  19  93 CALM      29.85R
WARROAD        FAIR      27  21  80 W7        29.85F WCI  19
ROSEAU         FAIR      25  21  86 SW5       29.86S WCI  19
HALLOCK        FAIR      19  18  93 CALM      29.88S
THF RVR FALLS  FAIR      22  21  96 SW7       29.90R WCI  13
BAUDETTE       FAIR      22  20  92 CALM      29.85R
WASKISH        FAIR      27  25  93 SW7       29.88R WCI  19
CROOKSTON      FAIR      21  19  93 SW9       29.92R WCI  11
STEPHEN NDAWN    N/A     25  23  93 NW2         N/A
GREENBUSH NDAW   N/A     21  19  93 W6          N/A  WCI  14
$$
  *****  WEATHER ACROSS CENTRAL AND WEST MINNESOTA  *****

CITY           SKY/WX    TMP DP  RH WIND       PRES   REMARKS
FOSSTON        FAIR      21  19  93 S7        29.91R WCI  13
BEMIDJI        FAIR      25  24  97 W5        29.89R WCI  19
PARK RAPIDS    HAZE      15  10  80 W3        29.90R VSB 1/4
ELBOW LAKE     FAIR      30  29  94 SE3       29.93F
WADENA         FAIR      28  27  93 W3        29.92R
DETROIT LAKES  FOG       25  23  93 CALM      29.92S VSB 1
MOORHEAD       FAIR      30  27  86 CALM      29.94R
FERGUS FALLS   FAIR      30  28  93 CALM      29.92S
MORRIS MN      FAIR      36  30  80 SW3       29.93S
STAPLES        FAIR      27  27 100 CALM      29.92R
$$
  *****  WEATHER ELSEWHERE ACROSS MINNESOTA  *****

CITY           SKY/WX    TMP DP  RH WIND       PRES   REMARKS
DULUTH         FAIR      30  26  85 NW7       29.87R WCI  23
INTRNTL FALLS  FAIR      22  19  89 SW5       29.85R WCI  16
ELY            NOT AVBL
CLOQUET        FAIR      30  25  80 CALM      29.88R
WHEATON        FAIR      34  28  80 W3        29.96S
BRAINERD       FAIR      26  23  88 CALM      29.92R
HIBBING        FAIR      18  18 100 CALM      29.87S FOG
ALEXANDRIA     MOCLDY    31  29  92 SW5       29.93R
SAINT CLOUD    MOCLDY    32  29  88 CALM      29.94R
MINNEAPOLIS    MOCLDY    35  32  88 CALM      29.93S
$$

  *****  WEATHER ACROSS SOUTH DAKOTA  *****

CITY           SKY/WX    TMP DP  RH WIND       PRES   REMARKS
SIOUX FALLS    CLOUDY    32  30  92 NE3       29.93R
BROOKINGS      CLOUDY    36  30  79 CALM      29.94R
WATERTOWN      CLOUDY    33  30  88 CALM      29.93R
HURON          CLOUDY    37  34  89 NW5       29.95R
SISSETON         N/A     37  30  75 W6        29.93R
ABERDEEN       CLOUDY    33  28  81 W5        29.96R
MITCHELL       CLOUDY    33  30  88 NW6       29.96R
PIERRE         CLOUDY    36  33  89 NW6       29.97R
MOBRIDGE       CLOUDY    36  28  73 NW6       29.93R
RAPID CITY     LGT SNOW  31  27  85 N8        29.98R FOG     WCI  23
$$

  *****  SOME WEATHER IN NEARBY STATES *****

CITY           SKY/WX    TMP DP  RH WIND       PRES   REMARKS
GLASGOW MT     FAIR      24  20  84 CALM      29.92S
GREAT FALLS MT FAIR      26  19  74 SW13      29.93S WCI  15
CHEYENNE WY    CLOUDY    27  27 100 E10       29.79S FOG     WCI  17
SCOTTSBLUFF NE CLOUDY    33  31  92 E8        29.88F
OMAHA NE       CLOUDY    37  34  89 N6        29.87S
DES MOINES IA  CLOUDY    41  37  86 E5        29.90R
DAVENPORT IA   CLOUDY    40  35  83 SE5       29.97S
CHICAGO IL     CLOUDY    40  35  83 S6        29.98R
EAU CLAIRE WI  FAIR      29  28  96 CALM      29.92S FOG
LA CROSSE WI   FAIR      28  27  96 CALM      29.93F FOG
$$

  *****  SOME NATIONAL WEATHER *****

CITY           SKY/WX    TMP DP  RH WIND       PRES   REMARKS
LA GUARDIA NY  FAIR      46  27  47 W5        30.03R
RALEIGH NC     FAIR      40  32  73 W3        30.19S
ATLANTA GA     FAIR      49  38  65 W7        30.24F
NEW ORLEANS LA FAIR      57  51  80 SE12      30.20F
OKLAHOMA CITY  FAIR      55  49  80 S17       29.79S
ALBUQUERQUE NM MOCLDY    50  21  32 S9        29.77S
SALT LAKE CITY MOCLDY    33  25  72 N12       29.95R WCI  24
LOS ANGELES CA FAIR      56  24  29 N13G21    30.11R
BOISE ID       CLOUDY    36  27  69 CALM      30.10S
SEATTLE WA     CLOUDY    46  37  71 S14G25    29.96F
$$

*** WEATHER ACROSS MANITOBA...SASKATCHEWAN AND ONTARIO ***
                ***ONTARIO***

CITY           SKY/WX    TMP DP  RH WIND       PRES   REMARKS
GERALDTON      FLURRIES   9   3  78 CALM      29.93R
THUNDER BAY    NOT AVBL
SIOUX LOOKOUT  LGT SNOW  19  16  86 E5        29.84S VSB 3/4 WCI  13
TORONTO        PTCLDY    32  27  80 S2        30.01R
BIG TROUT LK   FLURRIES  -2  -6  84 NE6       30.03R WCI -14
PICKLE LAKE    NOT AVBL
DRYDEN         CLOUDY    28  25  86 SE3       29.81S
KENORA         PTCLDY    23  23 100 SW6       29.83R WCI  16
$$
                *** MANITOBA***

CITY           SKY/WX    TMP DP  RH WIND       PRES   REMARKS
BRANDON        PTCLDY    21  19  93 W10       29.89R WCI  10
DAUPHIN        CLOUDY    18  14  86 N7        29.94R WCI   8
ISLAND LAKE    CLEAR     -8 -11  84 N3        30.02R
PILOT MOUND      N/A     23  21  93 W5          N/A  WCI  17
THE PAS        FLURRIES   1  -4  78 E7        30.00R WCI -11
THOMPSON       FLURRIES   1  -4  78 E6        30.07R WCI -10
WINNIPEG       CLOUDY    19  18  93 N9        29.89R WCI   9
LYNN LAKE      FLURRIES  -2  -6  84 E7        30.00R WCI -16
CHURCHILL      CRYSTALS  -9 -15  77 W8        30.26R WCI -26
GILLAM         CLEAR    -15 -18  84 NE6       30.18  WCI -29
$$
                ***SASKATCHEWAN***

CITY           SKY/WX    TMP DP  RH WIND       PRES   REMARKS
ESTEVAN        CLEAR     14  12  92 W5        29.90R WCI   6
KINDERSLEY     PTCLDY    18  16  93 SE7       29.83S WCI   8
LLOYDMINSTER   FLURRIES  23  21  93 SW3       29.82R
PRINCE ALBERT  CLOUDY    19  14  79 SE2       29.90S
REGINA         CLEAR     16  14  93 VRB2      29.88R
YORKTON        CLOUDY    27  25  93 NW8       29.88R WCI  18
N. BATTLEFORD  CLOUDY    25  21  86 VRB2      29.88R
LA RONGE       FLURRIES   9   5  85 E6        29.91R WCI  -1
SASKATOON      PTCLDY    16  14  93 SW6       29.89R WCI   7
SWIFT CURRENT  CLEAR     19  14  79 S9        29.83R WCI   9
$$
NOTE: THESE ARE AUTOMATED STATIONS WITH LIMITED QUALITY CONTROL
      "FAIR" INDICATES FEW OR NO CLOUDS BELOW 12,000 FEET WITH NO
      SIGNIFICANT WEATHER AND/OR OBSTRUCTIONS TO VISIBILITY.
      SKY/WX - SKY CONDITION AND SIGNIFICANT WEATHER.
      TMP - AIR TEMPERATURE.    DP   - DEWPOINT TEMPERATURE.
      RH  - RELATIVE HUMIDITY.  PRES - PRESSURE.
      HX  - HEAT INDEX.         WCI  - WIND CHILL INDEX.
$




USA.gov is the U.S. government's official web portal to all federal, state and local government web resources and services.